Regional Weather Roundup
Issued by NWS

Home | Current Version | Previous Version | Text Only | Print | Product List | Glossary On
Versions: 1 2 3 4 5 6 7 8 9 10 11 12 13 14 15 16 17 18 19 20 21 22 23 24 25 26 27 28 29 30 31 32 33 34 35 36 37 38 39 40 41 42 43 44 45 46 47 48 49 50
000
ASMX46 KSGX 290910
RWRMX

MEXICAN WEATHER ROUNDUP
NATIONAL WEATHER SERVICE SAN DIEGO CA
200 AM PDT TUE JUL 29 2014

BAJA CALIFORNIA

CITY           SKY/WX    TMP DP  RH WIND       PRES   REMARKS
ENSENADA NW      N/A     70  32  24 CALM      29.99F
TIJUANA        PTCLDY    70  63  78 CALM      30.06S

NORTHWESTERN MEXICO

CITY           SKY/WX    TMP DP  RH WIND       PRES   REMARKS

NORTHEASTERN MEXICO

CITY           SKY/WX    TMP DP  RH WIND       PRES   REMARKS
MONTERREY      CLEAR     75  68  78 CALM      30.05R
REYNOSA        CLEAR     73  70  88 SE6       30.03
VICTORIA       CLEAR     75  70  83 S9        30.05

WESTERN MEXICO

CITY           SKY/WX    TMP DP  RH WIND       PRES   REMARKS
GUADALAJARA    MOCLDY    59  55  88 CALM      30.25
MAZATLAN       MOCLDY    79  72  78 NW7       29.93
PTO. VALLARTA  PTCLDY    79  73  83 SE3       29.91F
ZACATECAS      CLEAR     54  43  66 SW12      30.37

CENTRAL MEXICO

CITY           SKY/WX    TMP DP  RH WIND       PRES   REMARKS
LEON           PTCLDY    57  55  94 CALM      30.37S
MEXICO CITY    MOCLDY    55  50  82 NE3       30.42S
MORELIA        CLEAR     54  52  94 W2        30.32
QUERETARO        N/A    N/A N/A N/A MISG        N/A
S. LUIS POTOSI PTCLDY    55  50  82 W5        30.35F
TOLUCA           N/A    N/A N/A N/A MISG        N/A

SOUTHERN MEXICO

CITY           SKY/WX    TMP DP  RH WIND       PRES   REMARKS
TAPACHULA      TSTM      75  72  88 NE12      29.93F

YUCATAN PENINSULA

CITY           SKY/WX    TMP DP  RH WIND       PRES   REMARKS
CANCUN         PTCLDY    81  77  89 CALM      30.04S
C. DEL CARMEN  PTCLDY    77  75  94 CALM      30.01F
MERIDA         MOCLDY    77  77 100 E6        30.02F

$$




USA.gov is the U.S. government's official web portal to all federal, state and local government web resources and services.